Hourly Weather Roundup
Issued by NWS Central Illinois

Home | Current Version | Previous Version | Text Only | Print | Product List | Glossary On
Versions: 1 2 3 4 5 6 7 8 9 10 11 12 13 14 15 16 17 18 19 20 21 22 23 24 25 26 27 28 29 30 31 32 33 34 35 36 37 38 39 40 41 42 43 44 45 46 47 48 49 50
000
NZUS43 KILX 210710
HWRILX

AREA WEATHER ROUNDUP
NATIONAL WEATHER SERVICE, LINCOLN IL
200 AM CDT MON APR 21 2014


CITY           SKY/WX    TMP DP  RH WIND       PRES   REMARKS
BLOOMINGTON    CLOUDY    57  43  59 S10       30.04F
CHAMPAIGN      CLOUDY    60  42  51 S9        30.05F
DANVILLE       PTCLDY    55  41  58 CALM      30.03S
DECATUR        CLOUDY    60  44  55 S8        30.04F
FLORA          NOT AVBL
GALESBURG      MOCLDY    59  46  62 S6        29.99F
JACKSONVILLE   CLOUDY    66  45  47 S7        30.02S
LACON          CLOUDY    65  43  45 S7        30.00F
LAWRENCEVILLE  CLOUDY    57  49  74 S3        30.07F
LITCHFIELD     CLOUDY    63  47  55 CALM      30.03F
$$


CITY           SKY/WX    TMP DP  RH WIND       PRES   REMARKS
LINCOLN        CLOUDY    59  45  59 SE6       30.01F
MACOMB         MOCLDY    61  45  55 SW7       30.02F
MATTOON        CLOUDY    63  42  46 S6        30.05F
MT CARMEL AP   CLOUDY    57  50  77 CALM      30.06F
OLNEY-NOBLE AP CLOUDY    61  43  51 CALM      30.06F
PARIS          PTCLDY    52  44  73 S3        30.07S
PEORIA         CLOUDY    63  43  48 S6        30.01F
PONTIAC        CLOUDY    63  45  51 S8        30.02F
RANTOUL        CLOUDY    57  44  62 CALM      30.06S
ROBINSON       MOCLDY    55  49  80 CALM      30.08S
SPRINGFIELD    CLOUDY    66  43  43 S10       30.02F
TAYLORVILLE    CLOUDY    61  45  55 S8        30.03F
$$

...REGIONAL REPORTS...


CITY           SKY/WX    TMP DP  RH WIND       PRES   REMARKS
CHICAGO O`HARE CLOUDY    65  40  39 SW9       30.00F
KANKAKEE       CLOUDY    57  43  61 S6        30.04F
MOLINE         MOCLDY    66  42  41 S8        29.97F
MOUNT VERNON   MOCLDY    54  41  62 CALM      30.06F
PITTSFIELD     CLOUDY    64  46  51 CALM      30.02F
QUINCY         MOCLDY    65  44  46 S3        30.00F
ROCKFORD       CLOUDY    61  44  53 CALM      30.01S
$$


CITY           SKY/WX    TMP DP  RH WIND       PRES   REMARKS
BURLINGTON     CLOUDY    60  47  61 S6        29.99F
CEDAR RAPIDS   CLOUDY    62  49  62 SW5       29.95F
DES MOINES     CLOUDY    64  54  69 CALM      29.97S
KIRKSVILLE     CLOUDY    66  52  60 W6        30.01S
OTTUMWA        CLOUDY    63  51  65 S9        29.97F
ST LOUIS       MOCLDY    69  43  38 S7        30.03S
$$


CITY           SKY/WX    TMP DP  RH WIND       PRES   REMARKS
TERRE HAUTE    PTCLDY    50  45  83 CALM      30.07F
EVANSVILLE     CLOUDY    57  49  74 CALM      30.08F
INDIANAPOLIS   PTCLDY    54  38  54 CALM      30.06F
LAFAYETTE      MOCLDY    54  40  59 CALM      30.05F
MADISON        CLOUDY    59  51  75 SW5       29.96S
MILWAUKEE      MOCLDY    63  41  44 S8        29.98S
$$




USA.gov is the U.S. government's official web portal to all federal, state and local government web resources and services.